Time,TemperatureF,DewpointF,PressureIn,WindDirection,WindDirectionDegrees,WindSpeedMPH,WindSpeedGustMPH,Humidity,HourlyPrecipIn,Conditions,Clouds,dailyrainin,SoftwareType,DateUTC
2013-02-05 00:01:00,47.0,44.0,30.06,ENE,68,0.0,-999.0,89,-99.99,,,-99.99,,2013-02-05 08:01:00,
2013-02-05 00:11:00,47.0,44.0,30.06,ENE,68,0.0,-999.0,89,-99.99,,,-99.99,,2013-02-05 08:11:00,
2013-02-05 00:21:00,47.0,45.0,30.07,ENE,68,0.0,-999.0,91,-99.99,,,-99.99,,2013-02-05 08:21:00,
2013-02-05 00:31:00,47.0,45.0,30.06,ENE,68,0.0,-999.0,91,-99.99,,,-99.99,,2013-02-05 08:31:00,
2013-02-05 00:41:00,47.0,45.0,30.06,ENE,68,0.0,-999.0,91,-99.99,,,-99.99,,2013-02-05 08:41:00,
2013-02-05 00:52:00,46.0,43.0,30.06,ENE,68,1.0,-999.0,90,-99.99,,,-99.99,,2013-02-05 08:52:00,
2013-02-05 01:02:00,46.0,43.0,30.05,ENE,68,1.0,-999.0,90,-99.99,,,-99.99,,2013-02-05 09:02:00,
2013-02-05 01:11:00,45.0,42.0,30.06,ENE,68,0.0,-999.0,90,-99.99,,,-99.99,,2013-02-05 09:11:00,
2013-02-05 01:21:00,45.0,42.0,30.06,ENE,68,0.0,-999.0,90,-99.99,,,-99.99,,2013-02-05 09:21:00,
2013-02-05 01:31:00,46.0,44.0,30.05,ENE,68,0.0,-999.0,91,-99.99,,,-99.99,,2013-02-05 09:31:00,
2013-02-05 01:42:00,46.0,44.0,30.05,ENE,68,0.0,-999.0,91,-99.99,,,-99.99,,2013-02-05 09:42:00,
2013-02-05 01:51:00,45.0,43.0,30.05,ENE,68,0.0,-999.0,91,-99.99,,,-99.99,,2013-02-05 09:51:00,
2013-02-05 02:01:00,45.0,43.0,30.05,ENE,68,0.0,-999.0,91,-99.99,,,-99.99,,2013-02-05 10:01:00,
2013-02-05 02:11:00,45.0,43.0,30.05,ENE,68,0.0,-999.0,91,-99.99,,,-99.99,,2013-02-05 10:11:00,
2013-02-05 02:21:00,45.0,43.0,30.05,ENE,68,0.0,-999.0,91,-99.99,,,-99.99,,2013-02-05 10:21:00,
2013-02-05 02:31:00,45.0,43.0,30.05,ENE,68,1.0,-999.0,92,-99.99,,,-99.99,,2013-02-05 10:31:00,
2013-02-05 02:42:00,45.0,43.0,30.05,ENE,68,1.0,-999.0,92,-99.99,,,-99.99,,2013-02-05 10:42:00,
2013-02-05 02:52:00,45.0,43.0,30.05,ENE,68,0.0,-999.0,92,-99.99,,,-99.99,,2013-02-05 10:52:00,
2013-02-05 03:01:00,45.0,43.0,30.05,ENE,68,0.0,-999.0,92,-99.99,,,-99.99,,2013-02-05 11:01:00,
2013-02-05 03:11:00,45.0,43.0,30.05,ENE,68,0.0,-999.0,92,-99.99,,,-99.99,,2013-02-05 11:11:00,
2013-02-05 03:21:00,45.0,43.0,30.04,ENE,68,2.0,-999.0,92,-99.99,,,-99.99,,2013-02-05 11:21:00,
2013-02-05 03:32:00,44.0,42.0,30.04,ENE,68,0.0,-999.0,92,-99.99,,,-99.99,,2013-02-05 11:32:00,
2013-02-05 03:41:00,44.0,42.0,30.04,ENE,68,0.0,-999.0,92,-99.99,,,-99.99,,2013-02-05 11:41:00,
2013-02-05 03:52:00,44.0,42.0,30.04,ENE,68,0.0,-999.0,93,-99.99,,,-99.99,,2013-02-05 11:52:00,
2013-02-05 04:01:00,45.0,43.0,30.04,ENE,68,0.0,-999.0,93,-99.99,,,-99.99,,2013-02-05 12:01:00,
2013-02-05 04:12:00,45.0,43.0,30.04,ENE,68,0.0,-999.0,93,-99.99,,,-99.99,,2013-02-05 12:12:00,
2013-02-05 04:21:00,45.0,43.0,30.03,ENE,68,0.0,-999.0,92,-99.99,,,-99.99,,2013-02-05 12:21:00,
2013-02-05 04:31:00,44.0,42.0,30.03,ENE,68,1.0,-999.0,92,-99.99,,,-99.99,,2013-02-05 12:31:00,
2013-02-05 04:41:00,44.0,42.0,30.03,ENE,68,1.0,-999.0,92,-99.99,,,-99.99,,2013-02-05 12:41:00,
2013-02-05 04:52:00,44.0,42.0,30.03,ENE,68,0.0,-999.0,92,-99.99,,,-99.99,,2013-02-05 12:52:00,
2013-02-05 05:01:00,44.0,42.0,30.03,ENE,68,0.0,-999.0,92,-99.99,,,-99.99,,2013-02-05 13:01:00,
2013-02-05 05:11:00,44.0,42.0,30.03,ENE,68,0.0,-999.0,92,-99.99,,,-99.99,,2013-02-05 13:11:00,
2013-02-05 05:21:00,44.0,42.0,30.03,ENE,68,0.0,-999.0,92,-99.99,,,-99.99,,2013-02-05 13:21:00,
2013-02-05 05:31:00,44.0,42.0,30.03,ENE,68,0.0,-999.0,92,-99.99,,,-99.99,,2013-02-05 13:31:00,
2013-02-05 05:42:00,44.0,42.0,30.03,ENE,68,0.0,-999.0,92,-99.99,,,-99.99,,2013-02-05 13:42:00,
2013-02-05 05:52:00,44.0,42.0,30.03,ENE,68,0.0,-999.0,92,-99.99,,,-99.99,,2013-02-05 13:52:00,
2013-02-05 06:01:00,44.0,42.0,30.03,ENE,64,0.0,-999.0,92,-99.99,,,-99.99,,2013-02-05 14:01:00,
2013-02-05 06:12:00,44.0,42.0,30.03,ENE,64,0.0,-999.0,92,-99.99,,,-99.99,,2013-02-05 14:12:00,
2013-02-05 06:21:00,44.0,42.0,30.03,ENE,64,2.0,-999.0,91,-99.99,,,-99.99,,2013-02-05 14:21:00,
2013-02-05 06:31:00,43.0,40.0,30.03,ENE,59,1.0,-999.0,88,-99.99,,,-99.99,,2013-02-05 14:31:00,
2013-02-05 06:42:00,43.0,40.0,30.03,ENE,59,1.0,-999.0,88,-99.99,,,-99.99,,2013-02-05 14:42:00,
2013-02-05 06:52:00,43.0,38.0,30.03,ENE,59,1.0,-999.0,84,-99.99,,,-99.99,,2013-02-05 14:52:00,
2013-02-05 07:01:00,44.0,39.0,30.03,ENE,59,2.0,-999.0,81,-99.99,,,-99.99,,2013-02-05 15:01:00,
2013-02-05 07:11:00,44.0,39.0,30.03,ENE,59,2.0,-999.0,81,-99.99,,,-99.99,,2013-02-05 15:11:00,
2013-02-05 07:21:00,44.0,40.0,30.04,WNW,285,1.0,-999.0,85,-99.99,,,-99.99,,2013-02-05 15:21:00,
2013-02-05 07:32:00,45.0,41.0,30.04,WNW,285,1.0,-999.0,85,-99.99,,,-99.99,,2013-02-05 15:32:00,
2013-02-05 07:41:00,45.0,41.0,30.04,WNW,285,1.0,-999.0,85,-99.99,,,-99.99,,2013-02-05 15:41:00,
2013-02-05 07:52:00,44.0,40.0,30.05,WNW,291,1.0,-999.0,87,-99.99,,,-99.99,,2013-02-05 15:52:00,
2013-02-05 08:01:00,44.0,41.0,30.05,North,9,0.0,-999.0,88,-99.99,,,-99.99,,2013-02-05 16:01:00,
2013-02-05 08:11:00,44.0,41.0,30.05,North,9,0.0,-999.0,88,-99.99,,,-99.99,,2013-02-05 16:11:00,
2013-02-05 08:22:00,45.0,42.0,30.06,North,9,1.0,-999.0,89,-99.99,,,-99.99,,2013-02-05 16:22:00,
2013-02-05 08:32:00,46.0,43.0,30.06,North,9,0.0,-999.0,89,-99.99,,,-99.99,,2013-02-05 16:32:00,
2013-02-05 08:42:00,46.0,43.0,30.06,North,9,0.0,-999.0,89,-99.99,,,-99.99,,2013-02-05 16:42:00,
2013-02-05 08:51:00,46.0,43.0,30.06,North,9,0.0,-999.0,89,-99.99,,,-99.99,,2013-02-05 16:51:00,
2013-02-05 09:01:00,46.0,43.0,30.07,North,9,0.0,-999.0,88,-99.99,,,-99.99,,2013-02-05 17:01:00,
2013-02-05 09:11:00,46.0,43.0,30.07,North,9,0.0,-999.0,88,-99.99,,,-99.99,,2013-02-05 17:11:00,
2013-02-05 09:21:00,47.0,44.0,30.07,North,9,0.0,-999.0,90,-99.99,,,-99.99,,2013-02-05 17:21:00,
2013-02-05 09:32:00,48.0,43.0,30.07,NW,319,1.0,-999.0,84,-99.99,,,-99.99,,2013-02-05 17:32:00,
2013-02-05 09:41:00,48.0,43.0,30.07,NW,319,1.0,-999.0,84,-99.99,,,-99.99,,2013-02-05 17:41:00,
2013-02-05 09:52:00,49.0,44.0,30.08,NW,319,0.0,-999.0,82,-99.99,,,-99.99,,2013-02-05 17:52:00,
2013-02-05 10:01:00,50.0,46.0,30.08,ESE,108,1.0,-999.0,87,-99.99,,,-99.99,,2013-02-05 18:01:00,
2013-02-05 10:11:00,50.0,46.0,30.08,ESE,108,1.0,-999.0,87,-99.99,,,-99.99,,2013-02-05 18:11:00,
2013-02-05 10:21:00,51.0,46.0,30.08,ESE,119,0.0,-999.0,84,-99.99,,,-99.99,,2013-02-05 18:21:00,
2013-02-05 10:32:00,50.0,46.0,30.09,South,171,1.0,-999.0,85,-99.99,,,-99.99,,2013-02-05 18:32:00,
2013-02-05 10:42:00,50.0,46.0,30.09,South,171,1.0,-999.0,85,-99.99,,,-99.99,,2013-02-05 18:42:00,
2013-02-05 10:51:00,51.0,46.0,30.09,SSE,167,1.0,-999.0,83,-99.99,,,-99.99,,2013-02-05 18:51:00,
2013-02-05 11:01:00,52.0,46.0,30.09,SSE,159,1.0,-999.0,81,-99.99,,,-99.99,,2013-02-05 19:01:00,
2013-02-05 11:11:00,52.0,46.0,30.09,SSE,159,1.0,-999.0,81,-99.99,,,-99.99,,2013-02-05 19:11:00,
2013-02-05 11:21:00,52.0,45.0,30.09,South,174,1.0,-999.0,77,-99.99,,,-99.99,,2013-02-05 19:21:00,
2013-02-05 11:31:00,53.0,47.0,30.09,SE,135,1.0,-999.0,79,-99.99,,,-99.99,,2013-02-05 19:31:00,
2013-02-05 11:42:00,53.0,47.0,30.09,SE,135,1.0,-999.0,79,-99.99,,,-99.99,,2013-02-05 19:42:00,
2013-02-05 11:51:00,52.0,46.0,30.08,South,186,2.0,-999.0,79,-99.99,,,-99.99,,2013-02-05 19:51:00,
2013-02-05 12:01:00,52.0,45.0,30.07,South,189,2.0,-999.0,76,-99.99,,,-99.99,,2013-02-05 20:01:00,
2013-02-05 12:11:00,52.0,45.0,30.07,South,189,2.0,-999.0,76,-99.99,,,-99.99,,2013-02-05 20:11:00,
2013-02-05 12:21:00,53.0,46.0,30.07,South,186,2.0,-999.0,78,-99.99,,,-99.99,,2013-02-05 20:21:00,
2013-02-05 12:31:00,53.0,46.0,30.06,South,184,0.0,-999.0,78,-99.99,,,-99.99,,2013-02-05 20:31:00,
2013-02-05 12:41:00,53.0,46.0,30.06,South,184,0.0,-999.0,78,-99.99,,,-99.99,,2013-02-05 20:41:00,
2013-02-05 12:52:00,55.0,47.0,30.06,SSE,159,1.0,-999.0,74,-99.99,,,-99.99,,2013-02-05 20:52:00,
2013-02-05 13:01:00,54.0,46.0,30.06,SSE,154,1.0,-999.0,75,-99.99,,,-99.99,,2013-02-05 21:01:00,
2013-02-05 13:11:00,54.0,46.0,30.06,SSE,154,1.0,-999.0,75,-99.99,,,-99.99,,2013-02-05 21:11:00,
2013-02-05 13:21:00,54.0,47.0,30.05,ESE,121,0.0,-999.0,76,-99.99,,,-99.99,,2013-02-05 21:21:00,
2013-02-05 13:31:00,53.0,47.0,30.04,SE,139,1.0,-999.0,79,-99.99,,,-99.99,,2013-02-05 21:31:00,
2013-02-05 13:41:00,53.0,47.0,30.04,SE,139,1.0,-999.0,79,-99.99,,,-99.99,,2013-02-05 21:41:00,
2013-02-05 13:51:00,52.0,45.0,30.05,South,182,0.0,-999.0,78,-99.99,,,-99.99,,2013-02-05 21:51:00,
2013-02-05 14:01:00,52.0,46.0,30.04,East,101,0.0,-999.0,79,-99.99,,,-99.99,,2013-02-05 22:01:00,
2013-02-05 14:11:00,52.0,46.0,30.04,East,101,0.0,-999.0,79,-99.99,,,-99.99,,2013-02-05 22:11:00,
2013-02-05 14:21:00,52.0,46.0,30.04,East,101,0.0,-999.0,79,-99.99,,,-99.99,,2013-02-05 22:21:00,
2013-02-05 14:31:00,52.0,45.0,30.04,South,181,2.0,-999.0,78,-99.99,,,-99.99,,2013-02-05 22:31:00,
2013-02-05 14:41:00,52.0,45.0,30.04,South,181,2.0,-999.0,78,-99.99,,,-99.99,,2013-02-05 22:41:00,
2013-02-05 14:52:00,52.0,46.0,30.03,South,174,0.0,-999.0,80,-99.99,,,-99.99,,2013-02-05 22:52:00,
2013-02-05 15:01:00,52.0,46.0,30.03,South,176,0.0,-999.0,79,-99.99,,,-99.99,,2013-02-05 23:01:00,
2013-02-05 15:11:00,52.0,46.0,30.03,South,176,0.0,-999.0,79,-99.99,,,-99.99,,2013-02-05 23:11:00,
2013-02-05 15:21:00,52.0,46.0,30.03,South,179,1.0,-999.0,80,-99.99,,,-99.99,,2013-02-05 23:21:00,
2013-02-05 15:32:00,53.0,47.0,30.03,South,179,1.0,-999.0,80,-99.99,,,-99.99,,2013-02-05 23:32:00,
2013-02-05 15:41:00,53.0,47.0,30.03,South,179,1.0,-999.0,80,-99.99,,,-99.99,,2013-02-05 23:41:00,
2013-02-05 15:52:00,55.0,47.0,30.03,South,190,1.0,-999.0,74,-99.99,,,-99.99,,2013-02-05 23:52:00,
2013-02-05 16:01:00,56.0,46.0,30.03,SW,215,2.0,-999.0,68,-99.99,,,-99.99,,2013-02-06 00:01:00,
2013-02-05 16:11:00,56.0,46.0,30.03,SW,215,2.0,-999.0,68,-99.99,,,-99.99,,2013-02-06 00:11:00,
2013-02-05 16:21:00,57.0,46.0,30.03,North,355,1.0,-999.0,67,-99.99,,,-99.99,,2013-02-06 00:21:00,
2013-02-05 16:31:00,57.0,45.0,30.03,NNW,343,4.0,-999.0,65,-99.99,,,-99.99,,2013-02-06 00:31:00,
2013-02-05 16:42:00,57.0,45.0,30.03,NNW,343,4.0,-999.0,65,-99.99,,,-99.99,,2013-02-06 00:42:00,
2013-02-05 16:51:00,57.0,45.0,30.03,NNE,17,2.0,-999.0,64,-99.99,,,-99.99,,2013-02-06 00:51:00,
2013-02-05 17:01:00,56.0,44.0,30.03,SSW,195,3.0,-999.0,65,-99.99,,,-99.99,,2013-02-06 01:01:00,
2013-02-05 17:11:00,56.0,44.0,30.03,SSW,195,3.0,-999.0,65,-99.99,,,-99.99,,2013-02-06 01:11:00,
2013-02-05 17:21:00,56.0,44.0,30.03,ENE,78,1.0,-999.0,64,-99.99,,,-99.99,,2013-02-06 01:21:00,
2013-02-05 17:32:00,56.0,43.0,30.03,NNW,338,1.0,-999.0,61,-99.99,,,-99.99,,2013-02-06 01:32:00,
2013-02-05 17:41:00,56.0,43.0,30.03,NNW,338,1.0,-999.0,61,-99.99,,,-99.99,,2013-02-06 01:41:00,
2013-02-05 17:52:00,54.0,41.0,30.03,NNW,346,4.0,-999.0,61,-99.99,,,-99.99,,2013-02-06 01:52:00,
2013-02-05 18:01:00,53.0,41.0,30.04,NNW,344,3.0,-999.0,64,-99.99,,,-99.99,,2013-02-06 02:01:00,
2013-02-05 18:11:00,53.0,41.0,30.04,NNW,344,3.0,-999.0,64,-99.99,,,-99.99,,2013-02-06 02:11:00,
2013-02-05 18:21:00,52.0,41.0,30.03,NW,316,3.0,-999.0,66,-99.99,,,-99.99,,2013-02-06 02:21:00,
2013-02-05 18:31:00,51.0,41.0,30.04,NNW,346,4.0,-999.0,69,-99.99,,,-99.99,,2013-02-06 02:31:00,
2013-02-05 18:41:00,51.0,41.0,30.04,NNW,346,4.0,-999.0,69,-99.99,,,-99.99,,2013-02-06 02:41:00,
2013-02-05 18:52:00,51.0,41.0,30.05,NNW,327,4.0,-999.0,68,-99.99,,,-99.99,,2013-02-06 02:52:00,
2013-02-05 19:02:00,53.0,41.0,30.05,NW,326,2.0,-999.0,64,-99.99,,,-99.99,,2013-02-06 03:02:00,
2013-02-05 19:11:00,53.0,41.0,30.05,NW,326,2.0,-999.0,64,-99.99,,,-99.99,,2013-02-06 03:11:00,
2013-02-05 19:21:00,54.0,40.0,30.05,NE,40,1.0,-999.0,60,-99.99,,,-99.99,,2013-02-06 03:21:00,
2013-02-05 19:32:00,54.0,40.0,30.06,NNE,30,0.0,-999.0,60,-99.99,,,-99.99,,2013-02-06 03:32:00,
2013-02-05 19:42:00,54.0,40.0,30.06,NNE,30,0.0,-999.0,60,-99.99,,,-99.99,,2013-02-06 03:42:00,
2013-02-05 19:52:00,54.0,41.0,30.06,North,355,1.0,-999.0,61,-99.99,,,-99.99,,2013-02-06 03:52:00,
2013-02-05 20:01:00,52.0,41.0,30.06,NNW,343,3.0,-999.0,67,-99.99,,,-99.99,,2013-02-06 04:01:00,
2013-02-05 20:11:00,52.0,41.0,30.06,NNW,343,3.0,-999.0,67,-99.99,,,-99.99,,2013-02-06 04:11:00,
2013-02-05 20:21:00,53.0,42.0,30.07,NNW,332,4.0,-999.0,66,-99.99,,,-99.99,,2013-02-06 04:21:00,
2013-02-05 20:31:00,53.0,41.0,30.08,West,280,3.0,-999.0,64,-99.99,,,-99.99,,2013-02-06 04:31:00,
2013-02-05 20:41:00,53.0,41.0,30.08,West,280,3.0,-999.0,64,-99.99,,,-99.99,,2013-02-06 04:41:00,
2013-02-05 20:51:00,53.0,42.0,30.09,NW,311,2.0,-999.0,65,-99.99,,,-99.99,,2013-02-06 04:51:00,
2013-02-05 21:01:00,52.0,42.0,30.09,NNW,332,3.0,-999.0,68,-99.99,,,-99.99,,2013-02-06 05:01:00,
2013-02-05 21:11:00,52.0,42.0,30.09,NNW,332,3.0,-999.0,68,-99.99,,,-99.99,,2013-02-06 05:11:00,
2013-02-05 21:22:00,51.0,42.0,30.09,NNW,339,3.0,-999.0,70,-99.99,,,-99.99,,2013-02-06 05:22:00,
2013-02-05 21:31:00,52.0,41.0,30.09,NNW,346,2.0,-999.0,67,-99.99,,,-99.99,,2013-02-06 05:31:00,
2013-02-05 21:40:00,52.0,40.0,30.09,North,355,2.0,-999.0,64,-99.99,,,-99.99,,2013-02-06 05:40:00,
2013-02-05 21:41:00,52.0,41.0,30.09,NNW,346,2.0,-999.0,67,-99.99,,,-99.99,,2013-02-06 05:41:00,
2013-02-05 21:52:00,52.0,41.0,30.09,West,267,1.0,-999.0,65,-99.99,,,-99.99,,2013-02-06 05:52:00,
2013-02-05 22:01:00,52.0,41.0,30.09,West,267,1.0,-999.0,65,-99.99,,,-99.99,,2013-02-06 06:01:00,
2013-02-05 22:11:00,52.0,41.0,30.09,West,267,1.0,-999.0,65,-99.99,,,-99.99,,2013-02-06 06:11:00,
2013-02-05 22:21:00,52.0,40.0,30.09,North,355,2.0,-999.0,64,-99.99,,,-99.99,,2013-02-06 06:21:00,
2013-02-05 22:31:00,52.0,40.0,30.09,North,355,2.0,-999.0,64,-99.99,,,-99.99,,2013-02-06 06:31:00,
2013-02-05 22:52:00,50.0,39.0,30.10,NNW,336,4.0,-999.0,67,-99.99,,,-99.99,,2013-02-06 06:52:00,
2013-02-05 23:01:00,50.0,40.0,30.10,North,355,4.0,-999.0,69,-99.99,,,-99.99,,2013-02-06 07:01:00,
2013-02-05 23:11:00,50.0,40.0,30.10,North,355,4.0,-999.0,69,-99.99,,,-99.99,,2013-02-06 07:11:00,
2013-02-05 23:21:00,49.0,39.0,30.10,NNW,343,3.0,-999.0,67,-99.99,,,-99.99,,2013-02-06 07:21:00,
2013-02-05 23:32:00,49.0,39.0,30.09,NNW,329,4.0,-999.0,67,-99.99,,,-99.99,,2013-02-06 07:32:00,
2013-02-05 23:41:00,49.0,39.0,30.09,NNW,329,4.0,-999.0,67,-99.99,,,-99.99,,2013-02-06 07:41:00,
2013-02-05 23:51:00,49.0,40.0,30.09,North,355,4.0,-999.0,70,-99.99,,,-99.99,,2013-02-06 07:51:00,